Regional Weather Roundup
Issued by NWS Kansas City/Pleasant Hill, MO

Home | Current Version | Previous Version | Graphics & Text | Print | Product List | Glossary Off
Versions: 1 2 3 4 5 6 7 8 9 10 11 12 13 14 15 16 17 18 19 20 21 22 23 24 25 26 27 28 29 30 31 32 33 34 35 36 37 38 39 40 41 42 43 44 45 46 47 48 49 50

000
ASUS43 KEAX 041204
RWREAX

WEATHER ROUNDUP FOR EASTERN KANSAS AND NORTHWEST MISSOURI
NATIONAL WEATHER SERVICE KANSAS CITY/PLEASANT HILL MO
700 AM CDT MON MAY 04 2015

KSZ040-057-103>105-MOZ028-029-037-043-041300-
...KANSAS CITY METROPOLITAN AREA...

CITY           SKY/WX    TMP DP  RH WIND       PRES   REMARKS
K.C. INTL      CLOUDY    61  56  83 S9        29.97S
6HR MIN TEMP:  60; 6HR MAX TEMP:  69;

K.C. DOWNTOWN  CLOUDY    66  56  70 CALM      29.98R
6HR MIN TEMP:  64; 6HR MAX TEMP:  71;

LEES SUMMIT    CLOUDY    62  55  77 S6        30.00S
6HR MIN TEMP:  61; 6HR MAX TEMP:  70;

OLATHE - IXD   CLOUDY    64  56  75 SW10      30.01R
6HR MIN TEMP:  64; 6HR MAX TEMP:  68; 6HR PCP: TRACE;

OLATHE - OJC   CLOUDY    62  56  80 CALM      30.01R
6HR MIN TEMP:  62; 6HR MAX TEMP:  68;

LAWRENCE       CLOUDY    58  54  86 E3        29.99R

$$

MOZ001>008-011>017-020>025-030>033-038>040-044>046-053-054-041300-
...NORTHERN AND CENTRAL MISSOURI...

CITY           SKY/WX    TMP DP  RH WIND       PRES   REMARKS
ST. JOSEPH     CLOUDY    66  56  70 SW7       29.95R
6HR MIN TEMP:  64; 6HR MAX TEMP:  71;

MOSBY            N/A     63  55  77 S6        29.97F
WARRENSBURG    CLOUDY    61  55  82 CALM      30.02R
WHITEMAN AFB   CLOUDY    62  58  87 SW6       30.01R
6HR MIN TEMP:  60; 6HR MAX TEMP:  64; 6HR PCP: TRACE;

CLINTON        TSTM      64  59  82 S8G17     30.03R
SEDALIA        LGT RAIN  63  58  83 S6        30.04R
6HR MIN TEMP:  62; 6HR MAX TEMP:  66; 6HR PCP:  0.08;

WARSAW         NOT AVBL
MARSHALL       CLOUDY    64  59  82 S7        30.02R
CHILLICOTHE      N/A     62  59  90 S7        29.97R
6HR MIN TEMP:  61; 6HR MAX TEMP:  72; 6HR PCP:  0.11;

MOBERLY        CLOUDY    66  54  63 SW8       30.02R
KIRKSVILLE     CLOUDY    64  59  83 S9        29.99R
6HR MIN TEMP:  62; 6HR MAX TEMP:  71; 6HR PCP: TRACE;


$$

MOZ041-047>049-056>058-063>065-088>090-097-041300-
...EASTERN AND SOUTHERN MISSOURI...

CITY           SKY/WX    TMP DP  RH WIND       PRES   REMARKS
ST. LOUIS INTL LGT RAIN  69  57  65 SW7       30.08R
6HR MIN TEMP:  68; 6HR MAX TEMP:  74; 6HR PCP: TRACE;

SPIRIT OF STL  LGT RAIN  65  59  81 CALM      30.06R
COLUMBIA       CLOUDY    63  57  81 S6        30.04R
JEFFERSON CITY CLOUDY    65  56  72 E6        30.04R
MEXICO         CLOUDY    66  59  77 S8        30.03R
ROLLA          CLOUDY    62  56  80 S9        30.06R
LEBANON        CLOUDY    64  55  72 SW7       30.08R
OSAGE BEACH    MOCLDY    61  54  77 S6        30.05R
SPRINGFIELD    MOCLDY    63  55  75 S7        30.08R
BRANSON        MOCLDY    63  55  77 S6        30.10R
NEVADA         CLOUDY    64  55  72 S12       30.03F
JOPLIN         CLOUDY    67  54  63 S12       30.05R
WEST PLAINS    MOCLDY    64  55  72 S5        30.12R

$$

IAZ060-094-KSZ022-034>040-054-083-096-NEZ052-066-093-041300-
...KANSAS...SOUTHEAST NEBRASKA AND IOWA...

CITY           SKY/WX    TMP DP  RH WIND       PRES   REMARKS
TOPEKA         CLOUDY    65  55  70 S10       29.98R
6HR MIN TEMP:  62; 6HR MAX TEMP:  70;

MANHATTAN      CLOUDY    62  56  80 CALM      29.94R
EMPORIA        MOCLDY    61  55  81 S12       29.97R
CHANUTE        MOCLDY    62  56  80 S9        30.01R
WICHITA        MOCLDY    58  54  86 S6        29.98R
OMAHA          CLOUDY    59  50  72 NW3       30.05R
LINCOLN        LGT RAIN  55  50  83 N8        30.03R
FALLS CITY     CLOUDY    62  55  77 N9        29.98R
LAMONI         CLOUDY    64  57  78 CALM      29.95R
DES MOINES     CLOUDY    62  55  77 N12       29.98R

$$



USA.gov is the U.S. government's official web portal to all federal, state and local government web resources and services.